Satellite-Ground Cal/Val Region Overpasses Predictions

Prediction of Satellite NPP Overpassing Cal/Val Region: PacNW

Region Location: (Latitude: 10.00, Longitude: 139.50) to (Latitude: 22.70, Longitude: 165.60).

Table of predicted overpasses for the next 14.0 days since TLE Epoch: 12/9/2023
Interval Starting Time Starting Location Ending Time Ending Location
1 12/09/2023 14:58:59 ( 22.68, 160.28) 12/09/2023 15:02:35 ( 10.00, 157.27)
2 12/10/2023 02:10:45 ( 19.47, 165.59) 12/10/2023 02:11:40 ( 22.69, 164.80)
3 12/10/2023 03:49:34 ( 10.02, 142.44) 12/10/2023 03:53:04 ( 22.35, 139.51)
4 12/10/2023 14:39:57 ( 22.67, 165.04) 12/10/2023 14:43:32 ( 10.05, 162.04)
5 12/10/2023 16:21:27 ( 22.66, 139.66) 12/10/2023 16:21:38 ( 22.02, 139.50)
6 12/11/2023 03:30:32 ( 10.04, 147.19) 12/11/2023 03:34:07 ( 22.66, 144.19)
7 12/11/2023 16:02:24 ( 22.65, 144.42) 12/11/2023 16:05:59 ( 10.02, 141.42)
8 12/12/2023 03:11:29 ( 10.05, 151.95) 12/12/2023 03:15:04 ( 22.67, 148.95)
9 12/12/2023 15:43:21 ( 22.69, 149.19) 12/12/2023 15:46:57 ( 10.01, 146.18)
10 12/13/2023 02:52:26 ( 10.01, 156.72) 12/13/2023 02:56:02 ( 22.69, 153.70)
11 12/13/2023 15:24:18 ( 22.67, 153.95) 12/13/2023 15:27:53 ( 10.05, 150.95)
12 12/14/2023 02:33:23 ( 10.03, 161.48) 12/14/2023 02:36:58 ( 22.65, 158.48)
13 12/14/2023 15:05:16 ( 22.65, 158.70) 12/14/2023 15:08:51 ( 10.03, 155.70)
14 12/15/2023 02:15:08 ( 12.81, 165.60) 12/15/2023 02:17:56 ( 22.67, 163.23)
15 12/15/2023 03:55:51 ( 10.05, 140.86) 12/15/2023 03:57:30 ( 15.87, 139.51)
16 12/15/2023 14:46:13 ( 22.70, 163.48) 12/15/2023 14:49:49 ( 10.02, 160.46)
17 12/16/2023 03:36:47 ( 10.01, 145.63) 12/16/2023 03:40:23 ( 22.70, 142.61)
18 12/16/2023 14:30:18 ( 11.64, 165.59) 12/16/2023 14:30:45 ( 10.06, 165.23)
19 12/16/2023 16:08:40 ( 22.67, 142.85) 12/16/2023 16:12:15 ( 10.05, 139.85)
20 12/17/2023 03:17:45 ( 10.03, 150.38) 12/17/2023 03:21:20 ( 22.66, 147.38)
21 12/17/2023 15:49:38 ( 22.65, 147.61) 12/17/2023 15:53:13 ( 10.03, 144.61)
22 12/18/2023 02:58:42 ( 10.05, 155.14) 12/18/2023 03:02:17 ( 22.68, 152.14)
23 12/18/2023 15:30:34 ( 22.68, 152.38) 12/18/2023 15:34:10 ( 10.01, 149.37)
24 12/19/2023 02:39:39 ( 10.02, 159.91) 12/19/2023 02:43:14 ( 22.64, 156.91)
25 12/19/2023 15:11:32 ( 22.66, 157.14) 12/19/2023 15:15:07 ( 10.04, 154.14)
26 12/20/2023 02:20:36 ( 10.04, 164.66) 12/20/2023 02:24:11 ( 22.67, 161.66)
27 12/20/2023 14:52:28 ( 22.70, 161.91) 12/20/2023 14:56:04 ( 10.02, 158.89)
28 12/21/2023 03:43:03 ( 10.02, 144.06) 12/21/2023 03:46:39 ( 22.70, 141.04)
29 12/21/2023 14:34:40 ( 18.33, 165.60) 12/21/2023 14:37:01 ( 10.06, 163.66)
30 12/21/2023 16:14:56 ( 22.66, 141.28) 12/21/2023 16:17:01 ( 15.33, 139.51)
31 12/22/2023 03:24:00 ( 10.04, 148.81) 12/22/2023 03:27:35 ( 22.67, 145.81)
32 12/22/2023 15:55:52 ( 22.70, 146.05) 12/22/2023 15:59:28 ( 10.02, 143.04)
